This is the latest recevied weather packets stored in our database for station/object KD9JB-1. If no packets are shown the sender has not sent any weather packets the latest 10 day(s).
| Time | Temp. | Humidity | Pressure | Rain* | Wind** | Luminosity | Snow |
|---|---|---|---|---|---|---|---|
| 1777490509 | 19.44° C | 53% | 1014 hPa | 0 mm | - | - | - |
| 1777490209 | 18.89° C | 52% | 1014 hPa | 0 mm | - | - | - |
| 1777489910 | 19.44° C | 51% | 1013.9 hPa | 0 mm | - | - | - |
| 1777489610 | 19.44° C | 53% | 1014 hPa | 0 mm | - | - | - |
| 1777489310 | 20° C | 56% | 1014 hPa | 0 mm | - | - | - |
| 1777489010 | 20° C | 55% | 1013.9 hPa | 0 mm | - | - | - |
| 1777488710 | 19.44° C | 53% | 1013.9 hPa | 0 mm | - | - | - |
| 1777488410 | 19.44° C | 55% | 1013.8 hPa | 0 mm | - | - | - |
| 1777488110 | 20° C | 54% | 1013.8 hPa | 0 mm | - | - | - |
| 1777487810 | 20° C | 56% | 1013.7 hPa | 0 mm | - | - | - |
| 1777487510 | 20° C | 54% | 1013.8 hPa | 0 mm | - | - | - |
| 1777487210 | 19.44° C | 56% | 1013.7 hPa | 0 mm | - | - | - |
| 1777486910 | 19.44° C | 60% | 1013.8 hPa | 0 mm | - | - | - |
| 1777486610 | 18.89° C | 61% | 1013.7 hPa | 0 mm | - | - | - |
| 1777486310 | 18.89° C | 61% | 1013.8 hPa | 0 mm | - | - | - |
| 1777486010 | 18.33° C | 61% | 1013.9 hPa | 0 mm | - | - | - |
| 1777485710 | 18.33° C | 61% | 1014 hPa | 0 mm | - | - | - |
| 1777485410 | 18.89° C | 60% | 1013.9 hPa | 0 mm | - | - | - |
| 1777485110 | 18.89° C | 62% | 1014 hPa | 0 mm | - | - | - |
| 1777484810 | 19.44° C | 60% | 1014 hPa | 0 mm | - | - | - |
| 1777484510 | 18.89° C | 62% | 1013.9 hPa | 0 mm | - | - | - |
| 1777484210 | 18.89° C | 65% | 1013.8 hPa | 0 mm | - | - | - |
| 1777483910 | 18.89° C | 63% | 1013.8 hPa | 0 mm | - | - | - |
| 1777483610 | 18.33° C | 65% | 1013.9 hPa | 0 mm | - | - | - |
| 1777483310 | 18.33° C | 64% | 1013.8 hPa | 0 mm | - | - | - |
* Rain latest hour (hover to see other rain measurements)
** Current wind speed in m/s (hover to see current wind gust speed)